Location: Newark
(7.0858°N, 171.3717°E)
Time: 09:47:52
(UTC+00:00)

S-56A Canister/Altair - Pass Details

Date: 05 December 2020
Orbit: 633 x 2499 km, 38.9° (Epoch: 27 January)

Event Time Altitude Azimuth Distance (km) Brightness Sun altitude
Rises 01:50:15 0° 215° (SW) 5,539 12.5 53.9°
Reaches altitude 10° 01:53:45 10° 210° (SSW) 4,728 12.4 53.4°
Maximum altitude 02:07:16 53° 136° (SE) 2,885 11.2 51.3°
Drops below altitude 10° 02:21:30 10° 64° (ENE) 4,987 11.4 49.0°
Sets 02:25:16 0° 60° (ENE) 5,854 11.6 48.4°
